Location: Pcim
(49.7500°N, 19.9670°E)
Time: 02:20:40
(UTC+02:00)

AO-91 - Pass Details

Date: 25 April 2024
Orbit: 441 x 736 km, 97.6° (Epoch: 23 May)

Event Time Altitude Azimuth Distance (km) Brightness Sun altitude
Rises 22:39:50 0° 11° (N) 2,446 ? -21.6°
Reaches altitude 10° 22:41:50 10° 9° (N) 1,573 ? -21.7°
Enters shadow 22:45:04 68° 299° (WNW) 491 ? -22.0°
